User: anonymous   Login
Location: NJAA Observatory
(40.6819°N, 74.8979°W)
Time: 04:59:17
(UTC-04:00)
Language:

Cosmos 1461 - Orbit

View from above orbital plane
View from above orbital plane
View from above satellite
View from above satellite

Ground track
Ground track

The orbit data is extracted from the following two-line orbital elements,

1 14064U 83044A   15116.47675392  .00002878  00000-0  27178-3 0  9994
2 14064 065.0031 183.2513 0111651 345.5361 014.2563 14.91166413606523
Epoch (UTC): 26 April 2015 11:26:31
Eccentricity: 0.0111651
inclination: 65.0031°
perigee height: 516 km
apogee height: 672 km
right ascension of ascending node: 183.2513°
argument of perigee: 345.5361°
revolutions per day: 14.91166413
mean anomaly at epoch: 14.2563°
orbit number at epoch: 60652

The dashed part of the orbit path shows where the satellite is in the earth's shadow,  

DLR